Location: Unspecified
(0.0000°N, 0.0000°E)
Time: 19:09:39
(UTC+02:00)

AO-40 - Visible Passes

Search period start: 23 October 2017 00:00
Search period end: 01 November 2017 23:00
Orbit: 1156 x 58665 km, 6.6° (Epoch: 22 October)

Date Brightness Start Highest point End Pass type
(mag) Time Alt. Az. Time Alt. Az. Time Alt. Az.
23 Oct ? 05:02:07 57° WSW 05:06:45 75° S 18:28:25 10° W visible
23 Oct ? 23:42:29 10° W 23:45:41 20° W 23:45:41 20° W visible
24 Oct ? 06:53:39 10° E 13:29:22 89° N 18:47:32 10° E visible
27 Oct ? 04:35:51 68° SW 04:38:13 75° S 18:20:41 10° W visible
27 Oct ? 23:13:37 10° W 23:19:27 29° WNW 23:19:27 29° WNW visible
28 Oct ? 06:44:49 10° E 13:22:22 88° N 18:19:48 10° E visible
31 Oct ? 03:09:35 74° S 03:09:48 74° S 17:13:19 10° W visible
31 Oct ? 21:44:27 10° W 21:53:14 43° WNW 21:53:14 43° WNW visible
01 Nov ? 05:35:55 10° E 12:15:54 88° N 16:52:03 10° E visible
